Flag for United Kingdom Weather past 2 weeks in Bradford, England, United Kingdom

Now
55 °F

Scattered clouds.


Feels Like: 53 °F
Forecast: 44 / 55 °F
Wind: 9 mph from Southwest

Location: Leeds And Bradford

Current Time: Oct 24, 2014 at 1:51:39 PM

Latest Report: Oct 24, 2014 at 1:20 PM


Visibility: N/A

Pressure: 29.86 "Hg

Humidity: 72%

Dew point: 46 °F

Location of BradfordLocation

Historic Weather in Bradford — Graph

°F

Bradford temperature yesterday

Maximum temperature yesterday: 59 °F (at 2:20 PM)
Minimum temperature yesterday: 50 °F (at 12:20 AM)
Average temperature yesterday: 54 °F

Past Weeks' High & Low Weather Summary

 TemperatureHumidityPressure
High63 °F (Oct 17, 12:50 PM)100% (Oct 9, 11:50 PM)30.18 "Hg (Oct 9, 11:50 PM)
Low41 °F (Oct 11, 7:50 AM)53% (Oct 21, 4:50 PM)29.24 "Hg (Oct 9, 12:20 PM)
Average51 °F91%29.74 "Hg
* Reported Oct 9 12:20 PM — Oct 24 12:50 PM, Bradford, Weather by CustomWeather, © 2014

Note: Actual official high and low records may vary slightly from our data, if they occured in-between our weather recording intervals... More about our weather records

Advertising

Bradford weather history for previous 24 hours

 ConditionsComfort  
Time TempWeatherWind HumidityBarometerVisibility
12:50 PM
Oct 24
55 °FScattered clouds.12 mph72%29.86 "HgN/A
12:20 PM54 °FScattered clouds.10 mph82%29.86 "HgN/A
11:50 AM54 °FScattered clouds.8 mph88%29.86 "HgN/A
11:20 AM52 °FScattered clouds.6 mph94%29.89 "HgN/A
10:50 AM52 °FScattered clouds.6 mph94%29.86 "HgN/A
10:20 AM52 °FPartly sunny.7 mph94%29.86 "HgN/A
9:50 AM50 °FPartly sunny.6 mph94%29.86 "HgN/A
9:20 AM50 °FPartly sunny.5 mph100%29.86 "HgN/A
8:50 AM50 °FScattered clouds.6 mph100%29.86 "HgN/A
8:20 AM50 °FPassing clouds.7 mph100%29.86 "Hg6 mi
7:50 AM50 °FPassing clouds.7 mph100%29.86 "HgN/A
7:20 AM50 °FPassing clouds.5 mph100%29.86 "HgN/A
6:50 AM50 °FPassing clouds.3 mph100%29.83 "HgN/A
6:20 AM50 °FPassing clouds.3 mph94%29.83 "HgN/A
5:50 AM50 °FPassing clouds.6 mph94%29.83 "HgN/A
5:20 AM50 °FPassing clouds.7 mph94%29.86 "HgN/A
4:50 AM52 °FPassing clouds.7 mph94%29.86 "HgN/A
4:20 AM52 °FLight rain. Passing clouds.10 mph94%29.86 "Hg5 mi
3:50 AM54 °FPassing clouds.9 mph94%29.83 "HgN/A
3:20 AM54 °FPassing clouds.8 mph94%29.83 "HgN/A
2:50 AM55 °FPassing clouds.9 mph88%29.86 "HgN/A
2:20 AM55 °FPassing clouds.10 mph88%29.86 "HgN/A
1:50 AM55 °FPassing clouds.9 mph88%29.86 "HgN/A
1:20 AM55 °FPassing clouds.10 mph88%29.86 "HgN/A
12:50 AM55 °FPassing clouds.10 mph88%29.86 "HgN/A
12:20 AM55 °FPassing clouds.12 mph88%29.86 "HgN/A
11:50 PM
Oct 23
55 °FPartly cloudy.12 mph88%29.86 "HgN/A
11:20 PM55 °FPassing clouds.10 mph88%29.86 "HgN/A
10:50 PM55 °FPassing clouds.12 mph88%29.86 "HgN/A
10:20 PM55 °FPassing clouds.13 mph94%29.86 "HgN/A
9:50 PM55 °FPassing clouds.12 mph94%29.86 "HgN/A
9:20 PM55 °FPassing clouds.10 mph94%29.86 "HgN/A
8:50 PM57 °FPassing clouds.13 mph88%29.86 "HgN/A
8:20 PM57 °FPassing clouds.13 mph88%29.86 "HgN/A
7:50 PM57 °FPassing clouds.14 mph88%29.86 "HgN/A
7:20 PM57 °FPassing clouds.14 mph88%29.86 "HgN/A
6:50 PM57 °FPartly sunny.14 mph88%29.86 "HgN/A
6:20 PM57 °FLight rain. Partly sunny.17 mph88%29.86 "HgN/A
5:50 PM57 °FScattered clouds.16 mph88%29.86 "HgN/A
5:20 PM57 °FScattered clouds.13 mph88%29.86 "HgN/A
4:50 PM59 °FPartly sunny.14 mph82%29.86 "HgN/A
4:20 PM57 °FPartly sunny.12 mph88%29.89 "HgN/A
3:50 PM59 °FPartly sunny.14 mph82%29.89 "HgN/A
3:20 PM59 °FScattered clouds.10 mph82%29.89 "HgN/A
2:50 PM59 °FScattered clouds.15 mph82%29.89 "HgN/A
2:20 PM59 °FScattered clouds.10 mph82%29.89 "HgN/A
1:50 PM57 °FScattered clouds.13 mph88%29.92 "HgN/A
1:20 PM55 °FPartly sunny.10 mph88%29.92 "HgN/A
Weather by CustomWeather, © 2014

See weather overviewHow to use our weather pages